"Pseudo-MPEC" for C2T01J2

Created 2020 May 24 2:07:03 UT using Find_Orb

Click here for an explanation of pseudo-MPECs

 
 Astrometry: 
     C2T01J2  C2020 05 15.33300 15 39 50.58 +15 06 18.9    ~5F8q 21.8 GVNEOCPG96
     C2T01J2  C2020 05 15.33820 15 39 51.49 +15 06 18.0    ~5F8q 21.3 GVNEOCPG96
     C2T01J2  C2020 05 15.34341 15 39 52.42 +15 06 18.2    ~5F8q 21.9 GVNEOCPG96
     C2T01J2  C2020 05 15.34861 15 39 53.41 +15 06 17.8    ~5F8q 22.3 GVNEOCPG96
     C2T01J2  C2020 05 15.42960 15 40 08.01 +15 06 03.1    ~5FAq 22.2 GVNEOCPV06
     C2T01J2  C2020 05 15.43356 15 40 08.78 +15 06 02.4    ~5FAq 21.9 GVNEOCPV06
     C2T01J2  C2020 05 15.43752 15 40 09.52 +15 06 01.3    ~5FAq 21.8 GVNEOCPV06
     C2T01J2  C2020 05 15.44148 15 40 10.29 +15 06 00.5    ~5FAq 21.9 GVNEOCPV06

Station data:
(G96) Mt. Lemmon Survey  (N32.442754 W110.788720)  US/Arizona.  Observers T.
   A. Pruyne, B. M. Africano, E. J. Christensen, G. A. Farneth, D. C. Fuls,
   A. R. Gibbs, A. D. Grauer, H. Gröller, J. A. Johnson, R. A. Kowalski, S.
   M. Larson, G. J. Leonard, D. Rankin, R. L. Seaman, F. C. Shelly. 1.5-m
   reflector + 10K CCD.
(V06) Catalina Sky Survey-Kuiper  (N32.416847 W110.732550)  US/Arizona.
   Observers T. A. Pruyne, B. M. Africano, E. J. Christensen, G. A. Farneth,
   D. C. Fuls, A. R. Gibbs, A. D. Grauer, H. Gröller, J. A. Johnson, R. A.
   Kowalski, S. M. Larson, G. J. Leonard, D. Rankin, R. L. Seaman, F. C.
   Shelly. 1.55-m reflector + CCD.

Orbital elements:  C2T01J2
   Perihelion 2020 Mar 22.871157 +/- 36.9 TT = 20:54:28 (JD 2458931.371157)
Epoch 2020 May 15.0 TT = JDT 2458984.5   Earth MOID: 0.0074   Ma: 0.0204
M  37.36447033 +/- 19               (J2000 ecliptic)          AutoNEOCP
n   0.70328033 +/- 0.2              Peri.  316.52624 +/- 90
a   1.25232505 +/- 0.238            Node   220.18853 +/- 60
e   0.2288048 +/- 0.147             Incl.    6.81415 +/- 5.0
P   1.40/511.88d           H 27.0   G  0.15   U 11.7  SR
q 0.96578699 +/- 0.138    Q 1.53886310 +/- 1.44
From 8 observations 2020 May 15 (2.6 hr); mean residual 0".32
Residuals in arcseconds: 
200515 G96  .25-  .15-    200515 G96  .88+  .48+    200515 V06  .08-  .10-    
200515 G96  .34-  .51-    200515 V06  .26-  .10-    200515 V06  .15+  .03+    
200515 G96  .17-  .26+    200515 V06  .07+  .09+    

Ephemerides (geocentric):
Date (UTC) HH   RA              Dec         delta   r     elong  mag " sig PA
---- -- -- --  -------------   -----------  ------ ------ -----  --- ---- ---
2020 05 24 02  16 01 23.344   +14 19 31.44  .08758 1.0856 144.9 23.2  22d  12
2020 05 24 03  16 01 27.196   +14 19 09.98  .08774 1.0857 144.9 23.2  23d  12
2020 05 24 04  16 01 31.033   +14 18 48.45  .08789 1.0858 144.9 23.3  23d  12
2020 05 24 05  16 01 34.857   +14 18 26.87  .08805 1.0860 144.9 23.3  23d  12
2020 05 24 06  16 01 38.668   +14 18 05.23  .08821 1.0861 144.9 23.3  23d  12
2020 05 24 07  16 01 42.465   +14 17 43.53  .08836 1.0863 144.9 23.3  23d  12
2020 05 24 08  16 01 46.250   +14 17 21.78  .08852 1.0864 144.9 23.3  23d  12
2020 05 24 09  16 01 50.020   +14 16 59.96  .08868 1.0865 144.9 23.3  23d  12
2020 05 24 10  16 01 53.778   +14 16 38.09  .08883 1.0867 144.9 23.3  23d  12
2020 05 24 11  16 01 57.523   +14 16 16.16  .08899 1.0868 144.9 23.3  23d  12
2020 05 24 12  16 02 01.255   +14 15 54.18  .08914 1.0870 144.9 23.3  23d  12
2020 05 24 13  16 02 04.974   +14 15 32.13  .08930 1.0871 144.9 23.3  24d  12
2020 05 24 14  16 02 08.680   +14 15 10.03  .08946 1.0872 144.9 23.3  24d  12
2020 05 24 15  16 02 12.373   +14 14 47.87  .08961 1.0874 144.9 23.3  24d  12
2020 05 24 16  16 02 16.054   +14 14 25.66  .08977 1.0875 144.9 23.3  24d  12
2020 05 24 17  16 02 19.722   +14 14 03.38  .08993 1.0876 144.9 23.3  24d  12
2020 05 24 18  16 02 23.378   +14 13 41.05  .09009 1.0878 144.9 23.3  24d  12
2020 05 24 19  16 02 27.021   +14 13 18.67  .09024 1.0879 144.9 23.3  24d  12
2020 05 24 20  16 02 30.651   +14 12 56.23  .09040 1.0881 144.9 23.3  24d  12
2020 05 24 21  16 02 34.270   +14 12 33.73  .09056 1.0882 144.9 23.3  24d  12
2020 05 24 22  16 02 37.876   +14 12 11.18  .09071 1.0883 144.8 23.3  24d  12
2020 05 24 23  16 02 41.470   +14 11 48.57  .09087 1.0885 144.8 23.3  24d  12
2020 05 25 00  16 02 45.052   +14 11 25.90  .09103 1.0886 144.8 23.3  24d  12
2020 05 25 01  16 02 48.622   +14 11 03.18  .09118 1.0887 144.8 23.3  24d  12
2020 05 25 02  16 02 52.180   +14 10 40.40  .09134 1.0889 144.8 23.3  25d  12
2020 05 25 03  16 02 55.726   +14 10 17.57  .09150 1.0890 144.8 23.3  25d  12
2020 05 25 04  16 02 59.260   +14 09 54.68  .09166 1.0892 144.8 23.3  25d  12
2020 05 25 05  16 03 02.782   +14 09 31.74  .09181 1.0893 144.8 23.4  25d  12
2020 05 25 06  16 03 06.293   +14 09 08.75  .09197 1.0894 144.8 23.4  25d  12
2020 05 25 07  16 03 09.792   +14 08 45.69  .09213 1.0896 144.8 23.4  25d  12
2020 05 25 08  16 03 13.280   +14 08 22.59  .09229 1.0897 144.8 23.4  25d  12
2020 05 25 09  16 03 16.756   +14 07 59.43  .09244 1.0899 144.8 23.4  25d  12
2020 05 25 10  16 03 20.220   +14 07 36.21  .09260 1.0900 144.8 23.4  25d  11
2020 05 25 11  16 03 23.674   +14 07 12.94  .09276 1.0901 144.8 23.4  25d  11
2020 05 25 12  16 03 27.116   +14 06 49.62  .09292 1.0903 144.8 23.4  25d  11
2020 05 25 13  16 03 30.546   +14 06 26.24  .09307 1.0904 144.8 23.4  25d  11
2020 05 25 14  16 03 33.966   +14 06 02.81  .09323 1.0905 144.8 23.4  25d  11
2020 05 25 15  16 03 37.374   +14 05 39.33  .09339 1.0907 144.8 23.4  25d  11
2020 05 25 16  16 03 40.772   +14 05 15.79  .09355 1.0908 144.8 23.4  26d  11
2020 05 25 17  16 03 44.158   +14 04 52.20  .09371 1.0910 144.8 23.4  26d  11
2020 05 25 18  16 03 47.534   +14 04 28.55  .09386 1.0911 144.8 23.4  26d  11
2020 05 25 19  16 03 50.898   +14 04 04.86  .09402 1.0912 144.8 23.4  26d  11
2020 05 25 20  16 03 54.252   +14 03 41.10  .09418 1.0914 144.8 23.4  26d  11
2020 05 25 21  16 03 57.595   +14 03 17.30  .09434 1.0915 144.8 23.4  26d  11
2020 05 25 22  16 04 00.928   +14 02 53.44  .09450 1.0917 144.8 23.4  26d  11
2020 05 25 23  16 04 04.249   +14 02 29.54  .09466 1.0918 144.8 23.4  26d  11
2020 05 26 00  16 04 07.561   +14 02 05.57  .09481 1.0919 144.8 23.4  26d  11
2020 05 26 01  16 04 10.861   +14 01 41.56  .09497 1.0921 144.8 23.4  26d  11